User: anonymous   Login
Location: Adamstown South Public School
(32.9318°S, 151.7012°E)
Time: 17:25:11
(UTC+00:00)
Language:

BREEZE-M DEB (TANK) - Orbit

View from above orbital plane
View from above orbital plane
View from above satellite
View from above satellite

Ground track
Ground track

The orbit data is extracted from the following two-line orbital elements,

1 36133U 09075C   20226.99657329 +.00000028 +00000-0 +62738-4 0  9999
2 36133 045.8973 165.9656 5164444 338.3951 005.9718 05.21905583201340
Epoch (UTC): 13 August 2020 23:55:03
Eccentricity: 0.5164444
inclination: 45.8973°
perigee height: 410 km
apogee height: 14911 km
right ascension of ascending node: 165.9656°
argument of perigee: 338.3951°
revolutions per day: 5.21905583
mean anomaly at epoch: 5.9718°
orbit number at epoch: 20134

The dashed part of the orbit path shows where the satellite is in the earth's shadow,  

DLR